Time,TemperatureF,DewpointF,PressureIn,WindDirection,WindDirectionDegrees,WindSpeedMPH,WindSpeedGustMPH,Humidity,HourlyPrecipIn,Conditions,Clouds,dailyrainin,SoftwareType,DateUTC
2013-12-06 00:22:00,3.0,-2.0,-100.00,WNW,285,4.0,12.0,80,-99.99,,,-99.99,,2013-12-06 06:22:00,
2013-12-06 00:32:00,3.0,-2.0,-100.00,WNW,285,4.0,12.0,80,-99.99,,,-99.99,,2013-12-06 06:32:00,
2013-12-06 00:42:00,3.0,-2.0,-100.00,WNW,285,4.0,12.0,80,-99.99,,,-99.99,,2013-12-06 06:42:00,
2013-12-06 00:52:00,3.0,-2.0,-100.00,WNW,285,4.0,12.0,80,-99.99,,,-99.99,,2013-12-06 06:52:00,
2013-12-06 01:22:00,2.0,-2.0,-100.00,West,280,6.0,13.0,81,-99.99,,,-99.99,,2013-12-06 07:22:00,
2013-12-06 01:32:00,2.0,-2.0,-100.00,West,280,6.0,13.0,81,-99.99,,,-99.99,,2013-12-06 07:32:00,
2013-12-06 01:42:00,2.0,-2.0,-100.00,West,280,6.0,13.0,81,-99.99,,,-99.99,,2013-12-06 07:42:00,
2013-12-06 01:52:00,2.0,-2.0,-100.00,West,280,6.0,13.0,81,-99.99,,,-99.99,,2013-12-06 07:52:00,
2013-12-06 02:22:00,1.0,-4.0,-100.00,WNW,300,6.0,14.0,79,-99.99,,,-99.99,,2013-12-06 08:22:00,
2013-12-06 02:32:00,1.0,-4.0,-100.00,WNW,300,6.0,14.0,79,-99.99,,,-99.99,,2013-12-06 08:32:00,
2013-12-06 02:42:00,1.0,-4.0,-100.00,WNW,300,6.0,14.0,79,-99.99,,,-99.99,,2013-12-06 08:42:00,
2013-12-06 02:52:00,1.0,-4.0,-100.00,WNW,300,6.0,14.0,79,-99.99,,,-99.99,,2013-12-06 08:52:00,
2013-12-06 03:22:00,0.0,-5.0,-100.00,WNW,290,6.0,10.0,79,-99.99,,,-99.99,,2013-12-06 09:22:00,
2013-12-06 03:32:00,0.0,-5.0,-100.00,WNW,290,6.0,10.0,79,-99.99,,,-99.99,,2013-12-06 09:32:00,
2013-12-06 03:43:00,0.0,-5.0,-100.00,WNW,290,6.0,10.0,79,-99.99,,,-99.99,,2013-12-06 09:43:00,
2013-12-06 03:53:00,0.0,-5.0,-100.00,WNW,290,6.0,10.0,79,-99.99,,,-99.99,,2013-12-06 09:53:00,
2013-12-06 04:23:00,0.0,-5.0,-100.00,WNW,295,6.0,11.0,79,-99.99,,,-99.99,,2013-12-06 10:23:00,
2013-12-06 04:33:00,0.0,-5.0,-100.00,WNW,295,6.0,11.0,79,-99.99,,,-99.99,,2013-12-06 10:33:00,
2013-12-06 04:43:00,0.0,-5.0,-100.00,WNW,295,6.0,11.0,79,-99.99,,,-99.99,,2013-12-06 10:43:00,
2013-12-06 04:52:00,0.0,-5.0,-100.00,WNW,295,6.0,11.0,79,-99.99,,,-99.99,,2013-12-06 10:52:00,
2013-12-06 05:22:00,-1.0,-5.0,-100.00,West,280,4.0,10.0,80,-99.99,,,-99.99,,2013-12-06 11:22:00,
2013-12-06 05:33:00,-1.0,-5.0,-100.00,West,280,4.0,10.0,80,-99.99,,,-99.99,,2013-12-06 11:33:00,
2013-12-06 05:42:00,-1.0,-5.0,-100.00,West,280,4.0,10.0,80,-99.99,,,-99.99,,2013-12-06 11:42:00,
2013-12-06 05:53:00,-1.0,-5.0,-100.00,West,280,4.0,10.0,80,-99.99,,,-99.99,,2013-12-06 11:53:00,
2013-12-06 06:21:00,-1.0,-6.0,-100.00,WNW,295,7.0,12.0,80,-99.99,,,-99.99,,2013-12-06 12:21:00,
2013-12-06 06:32:00,-1.0,-6.0,-100.00,WNW,295,7.0,12.0,80,-99.99,,,-99.99,,2013-12-06 12:32:00,
2013-12-06 06:42:00,-1.0,-6.0,-100.00,WNW,295,7.0,12.0,80,-99.99,,,-99.99,,2013-12-06 12:42:00,
2013-12-06 06:52:00,-1.0,-6.0,-100.00,WNW,295,7.0,12.0,80,-99.99,,,-99.99,,2013-12-06 12:52:00,
2013-12-06 07:22:00,-2.0,-6.0,-100.00,West,275,4.0,10.0,81,-99.99,,,-99.99,,2013-12-06 13:22:00,
2013-12-06 07:32:00,-2.0,-6.0,-100.00,West,275,4.0,10.0,81,-99.99,,,-99.99,,2013-12-06 13:32:00,
2013-12-06 07:42:00,-2.0,-6.0,-100.00,West,275,4.0,10.0,81,-99.99,,,-99.99,,2013-12-06 13:42:00,
2013-12-06 07:52:00,-2.0,-6.0,-100.00,West,275,4.0,10.0,81,-99.99,,,-99.99,,2013-12-06 13:52:00,
2013-12-06 08:22:00,-2.0,-6.0,-100.00,West,280,7.0,14.0,81,-99.99,,,-99.99,,2013-12-06 14:22:00,
2013-12-06 08:32:00,-2.0,-6.0,-100.00,West,280,7.0,14.0,81,-99.99,,,-99.99,,2013-12-06 14:32:00,
2013-12-06 08:42:00,-2.0,-6.0,-100.00,West,280,7.0,14.0,81,-99.99,,,-99.99,,2013-12-06 14:42:00,
2013-12-06 08:52:00,-2.0,-6.0,-100.00,West,280,7.0,14.0,81,-99.99,,,-99.99,,2013-12-06 14:52:00,
2013-12-06 10:24:00,1.0,-6.0,-100.00,NW,320,9.0,13.0,71,-99.99,,,-99.99,,2013-12-06 16:24:00,
2013-12-06 10:34:00,1.0,-6.0,-100.00,NW,320,9.0,13.0,71,-99.99,,,-99.99,,2013-12-06 16:34:00,
2013-12-06 10:43:00,1.0,-6.0,-100.00,NW,320,9.0,13.0,71,-99.99,,,-99.99,,2013-12-06 16:43:00,
2013-12-06 10:53:00,1.0,-6.0,-100.00,NW,320,9.0,13.0,71,-99.99,,,-99.99,,2013-12-06 16:53:00,
2013-12-06 13:22:00,8.0,-3.0,-100.00,NW,305,9.0,15.0,61,-99.99,,,-99.99,,2013-12-06 19:22:00,
2013-12-06 13:32:00,8.0,-3.0,-100.00,NW,305,9.0,15.0,61,-99.99,,,-99.99,,2013-12-06 19:32:00,
2013-12-06 13:42:00,8.0,-3.0,-100.00,NW,305,9.0,15.0,61,-99.99,,,-99.99,,2013-12-06 19:42:00,
2013-12-06 13:52:00,8.0,-3.0,-100.00,NW,305,9.0,15.0,61,-99.99,,,-99.99,,2013-12-06 19:52:00,
2013-12-06 14:22:00,8.0,-4.0,-100.00,West,270,9.0,14.0,59,-99.99,,,-99.99,,2013-12-06 20:22:00,
2013-12-06 14:32:00,8.0,-4.0,-100.00,West,270,9.0,14.0,59,-99.99,,,-99.99,,2013-12-06 20:32:00,
2013-12-06 14:42:00,8.0,-4.0,-100.00,West,270,9.0,14.0,59,-99.99,,,-99.99,,2013-12-06 20:42:00,
2013-12-06 14:52:00,8.0,-4.0,-100.00,West,270,9.0,14.0,59,-99.99,,,-99.99,,2013-12-06 20:52:00,
2013-12-06 17:22:00,4.0,-3.0,-100.00,West,265,6.0,9.0,72,-99.99,,,-99.99,,2013-12-06 23:22:00,
2013-12-06 17:33:00,4.0,-3.0,-100.00,West,265,6.0,9.0,72,-99.99,,,-99.99,,2013-12-06 23:33:00,
2013-12-06 17:42:00,4.0,-3.0,-100.00,West,265,6.0,9.0,72,-99.99,,,-99.99,,2013-12-06 23:42:00,
2013-12-06 17:52:00,4.0,-3.0,-100.00,West,265,6.0,9.0,72,-99.99,,,-99.99,,2013-12-06 23:52:00,
2013-12-06 20:21:00,1.0,-5.0,-100.00,WNW,285,5.0,10.0,75,-99.99,,,-99.99,,2013-12-07 02:21:00,
2013-12-06 20:32:00,1.0,-5.0,-100.00,WNW,285,5.0,10.0,75,-99.99,,,-99.99,,2013-12-07 02:32:00,
2013-12-06 20:42:00,1.0,-5.0,-100.00,WNW,285,5.0,10.0,75,-99.99,,,-99.99,,2013-12-07 02:42:00,
2013-12-06 20:52:00,1.0,-5.0,-100.00,WNW,285,5.0,10.0,75,-99.99,,,-99.99,,2013-12-07 02:52:00,
2013-12-06 23:22:00,-2.0,-8.0,-100.00,WNW,300,7.0,14.0,75,-99.99,,,-99.99,,2013-12-07 05:22:00,
2013-12-06 23:33:00,-2.0,-8.0,-100.00,WNW,300,7.0,14.0,75,-99.99,,,-99.99,,2013-12-07 05:33:00,
2013-12-06 23:43:00,-2.0,-8.0,-100.00,WNW,300,7.0,14.0,75,-99.99,,,-99.99,,2013-12-07 05:43:00,
2013-12-06 23:53:00,-2.0,-8.0,-100.00,WNW,300,7.0,14.0,75,-99.99,,,-99.99,,2013-12-07 05:53:00,